Location: Davayat
(45.9471°N, 3.1105°E)
Time: 18:15:18
(UTC+00:00)

X-37B - Pass Details

Date: 01 December 2020
Orbit: 384 x 390 km, 45.0° (Epoch: 02 January)

Event Time Altitude Azimuth Distance (km) Brightness Sun altitude
Rises 18:58:54 0° 270° (W) 2,266 5.7 -29.6°
Reaches altitude 10° 19:00:58 10° 269° (W) 1,413 4.3 -30.0°
Enters shadow 19:01:17 12° 268° (W) 1,289 4.1 -30.1°
